Date_Time,Julian_Date,Latitude,Longitude,Instrument_Depth,U,V,Speed,Direction
(yyyy-mm-dd hh:mn:ss UTC),(JD),(+ deg. North),(+ deg. East),(m),(cm/s),(cm/s),(cm/s),(deg True)
1984-06-14 18:00:00 UTC,2445866.250000,28.7317,-95.2428,0215,-0.17,-5.00,5.0000,182.0000
1984-06-14 18:30:00 UTC,2445866.270833,28.7317,-95.2428,0215,-0.35,-4.99,5.0000,184.0000
1984-06-14 19:00:00 UTC,2445866.291667,28.7317,-95.2428,0215,-0.63,-5.97,6.0000,186.0000
1984-06-14 19:30:00 UTC,2445866.312500,28.7317,-95.2428,0215,-0.73,-5.96,6.0000,187.0000
1984-06-14 20:00:00 UTC,2445866.333333,28.7317,-95.2428,0215,-1.04,-5.91,6.0000,190.0000
1984-06-14 20:30:00 UTC,2445866.354167,28.7317,-95.2428,0215,-1.04,-5.91,6.0000,190.0000
1984-06-14 21:00:00 UTC,2445866.375000,28.7317,-95.2428,0215,-0.61,-4.96,5.0000,187.0000
1984-06-14 21:30:00 UTC,2445866.395833,28.7317,-95.2428,0215,-0.52,-4.97,5.0000,186.0000
1984-06-14 22:00:00 UTC,2445866.416667,28.7317,-95.2428,0215,-0.84,-5.94,6.0000,188.0000
1984-06-14 22:30:00 UTC,2445866.437500,28.7317,-95.2428,0215,-0.73,-5.96,6.0000,187.0000
1984-06-14 23:00:00 UTC,2445866.458333,28.7317,-95.2428,0215,-0.52,-5.98,6.0000,185.0000
1984-06-14 23:30:00 UTC,2445866.479167,28.7317,-95.2428,0215,-0.42,-5.99,6.0000,184.0000
1984-06-15 00:00:00 UTC,2445866.500000,28.7317,-95.2428,0215,-0.35,-4.99,5.0000,184.0000
1984-06-15 00:30:00 UTC,2445866.520833,28.7317,-95.2428,0215,-0.52,-5.98,6.0000,185.0000
1984-06-15 01:00:00 UTC,2445866.541667,28.7317,-95.2428,0215,-1.25,-5.87,6.0000,192.0000
1984-06-15 01:30:00 UTC,2445866.562500,28.7317,-95.2428,0215,-2.28,-6.62,7.0000,199.0000
1984-06-15 02:00:00 UTC,2445866.583333,28.7317,-95.2428,0215,-2.28,-6.62,7.0000,199.0000
1984-06-15 02:30:00 UTC,2445866.604167,28.7317,-95.2428,0215,-1.57,-6.82,7.0000,193.0000
1984-06-15 03:00:00 UTC,2445866.625000,28.7317,-95.2428,0215,-0.49,-6.98,7.0000,184.0000
1984-06-15 03:30:00 UTC,2445866.645833,28.7317,-95.2428,0215,0.84,-5.94,6.0000,172.0000
1984-06-15 04:00:00 UTC,2445866.666667,28.7317,-95.2428,0215,1.04,-5.91,6.0000,170.0000
1984-06-15 04:30:00 UTC,2445866.687500,28.7317,-95.2428,0215,0.78,-4.94,5.0000,171.0000
1984-06-15 05:00:00 UTC,2445866.708333,28.7317,-95.2428,0215,0.87,-4.92,5.0000,170.0000
1984-06-15 05:30:00 UTC,2445866.729167,28.7317,-95.2428,0215,0.87,-4.92,5.0000,170.0000
1984-06-15 06:00:00 UTC,2445866.750000,28.7317,-95.2428,0215,0.70,-4.95,5.0000,172.0000
1984-06-15 06:30:00 UTC,2445866.770833,28.7317,-95.2428,0215,0.52,-5.98,6.0000,175.0000
1984-06-15 07:00:00 UTC,2445866.791667,28.7317,-95.2428,0215,0.31,-5.99,6.0000,177.0000
1984-06-15 07:30:00 UTC,2445866.812500,28.7317,-95.2428,0215,0.42,-5.99,6.0000,176.0000
1984-06-15 08:00:00 UTC,2445866.833333,28.7317,-95.2428,0215,0.44,-4.98,5.0000,175.0000
1984-06-15 08:30:00 UTC,2445866.854167,28.7317,-95.2428,0215,0.70,-4.95,5.0000,172.0000
1984-06-15 09:00:00 UTC,2445866.875000,28.7317,-95.2428,0215,1.21,-4.85,5.0000,166.0000
1984-06-15 09:30:00 UTC,2445866.895833,28.7317,-95.2428,0215,1.38,-4.81,5.0000,164.0000
1984-06-15 10:00:00 UTC,2445866.916667,28.7317,-95.2428,0215,1.04,-4.89,5.0000,168.0000
1984-06-15 10:30:00 UTC,2445866.937500,28.7317,-95.2428,0215,0.87,-4.92,5.0000,170.0000
1984-06-15 11:00:00 UTC,2445866.958333,28.7317,-95.2428,0215,1.35,-5.85,6.0000,167.0000
1984-06-15 11:30:00 UTC,2445866.979167,28.7317,-95.2428,0215,1.55,-5.80,6.0000,165.0000
1984-06-15 12:00:00 UTC,2445867.000000,28.7317,-95.2428,0215,1.35,-5.85,6.0000,167.0000
1984-06-15 12:30:00 UTC,2445867.020833,28.7317,-95.2428,0215,0.70,-4.95,5.0000,172.0000
1984-06-15 13:00:00 UTC,2445867.041667,28.7317,-95.2428,0215,0.35,-4.99,5.0000,176.0000
1984-06-15 13:30:00 UTC,2445867.062500,28.7317,-95.2428,0215,0.10,-6.00,6.0000,179.0000
1984-06-15 14:00:00 UTC,2445867.083333,28.7317,-95.2428,0215,0.00,-5.00,5.0000,180.0000
1984-06-15 14:30:00 UTC,2445867.104167,28.7317,-95.2428,0215,0.09,-5.00,5.0000,179.0000
1984-06-15 15:00:00 UTC,2445867.125000,28.7317,-95.2428,0215,0.52,-4.97,5.0000,174.0000
1984-06-15 15:30:00 UTC,2445867.145833,28.7317,-95.2428,0215,1.21,-4.85,5.0000,166.0000
1984-06-15 16:00:00 UTC,2445867.166667,28.7317,-95.2428,0215,2.03,-4.57,5.0000,156.0000
1984-06-15 16:30:00 UTC,2445867.187500,28.7317,-95.2428,0215,2.24,-3.32,4.0000,146.0000
1984-06-15 17:00:00 UTC,2445867.208333,28.7317,-95.2428,0215,2.83,-2.83,4.0000,135.0000
1984-06-15 17:30:00 UTC,2445867.229167,28.7317,-95.2428,0215,1.78,-0.91,2.0000,117.0000
1984-06-15 18:00:00 UTC,2445867.250000,28.7317,-95.2428,0215,0.94,-0.34,1.0000,110.0000
1984-06-15 18:30:00 UTC,2445867.270833,28.7317,-95.2428,0215,1.00,-1.73,2.0000,150.0000
1984-06-15 19:00:00 UTC,2445867.291667,28.7317,-95.2428,0215,1.75,-3.60,4.0000,154.0000
1984-06-15 19:30:00 UTC,2445867.312500,28.7317,-95.2428,0215,2.00,-3.46,4.0000,150.0000
1984-06-15 20:00:00 UTC,2445867.333333,28.7317,-95.2428,0215,2.12,-3.39,4.0000,148.0000
1984-06-15 20:30:00 UTC,2445867.354167,28.7317,-95.2428,0215,2.58,-4.29,5.0000,149.0000
1984-06-15 21:00:00 UTC,2445867.375000,28.7317,-95.2428,0215,1.50,-3.71,4.0000,158.0000
1984-06-15 21:30:00 UTC,2445867.395833,28.7317,-95.2428,0215,0.16,-3.00,3.0000,177.0000
1984-06-15 22:00:00 UTC,2445867.416667,28.7317,-95.2428,0215,-0.62,-1.90,2.0000,198.0000
1984-06-15 22:30:00 UTC,2445867.437500,28.7317,-95.2428,0215,-0.53,-0.85,1.0000,212.0000
1984-06-15 23:00:00 UTC,2445867.458333,28.7317,-95.2428,0215,-1.26,-1.55,2.0000,219.0000
1984-06-15 23:30:00 UTC,2445867.479167,28.7317,-95.2428,0215,-1.93,-2.30,3.0000,220.0000
1984-06-16 00:00:00 UTC,2445867.500000,28.7317,-95.2428,0215,-1.89,-2.33,3.0000,219.0000
1984-06-16 00:30:00 UTC,2445867.520833,28.7317,-95.2428,0215,-1.59,-2.54,3.0000,212.0000
1984-06-16 01:00:00 UTC,2445867.541667,28.7317,-95.2428,0215,-0.75,-1.85,2.0000,202.0000
1984-06-16 01:30:00 UTC,2445867.562500,28.7317,-95.2428,0215,-0.98,-2.84,3.0000,199.0000
1984-06-16 02:00:00 UTC,2445867.583333,28.7317,-95.2428,0215,-0.65,-1.89,2.0000,199.0000
1984-06-16 02:30:00 UTC,2445867.604167,28.7317,-95.2428,0215,-0.35,-1.97,2.0000,190.0000
1984-06-16 03:00:00 UTC,2445867.625000,28.7317,-95.2428,0215,-0.21,-2.99,3.0000,184.0000
1984-06-16 03:30:00 UTC,2445867.645833,28.7317,-95.2428,0215,-0.21,-2.99,3.0000,184.0000
1984-06-16 04:00:00 UTC,2445867.666667,28.7317,-95.2428,0215,0.00,-3.00,3.0000,180.0000
1984-06-16 04:30:00 UTC,2445867.687500,28.7317,-95.2428,0215,0.17,-1.99,2.0000,175.0000
1984-06-16 05:00:00 UTC,2445867.708333,28.7317,-95.2428,0215,0.12,-0.99,1.0000,173.0000
1984-06-16 05:30:00 UTC,2445867.729167,28.7317,-95.2428,0215,0.05,-1.00,1.0000,177.0000
1984-06-16 06:00:00 UTC,2445867.750000,28.7317,-95.2428,0215,0.03,-1.00,1.0000,178.0000
1984-06-16 06:30:00 UTC,2445867.770833,28.7317,-95.2428,0215,-0.00,-0.00,0.0000,186.0000
1984-06-16 07:00:00 UTC,2445867.791667,28.7317,-95.2428,0215,-0.00,-0.00,0.0000,194.0000
1984-06-16 07:30:00 UTC,2445867.812500,28.7317,-95.2428,0215,0.00,-0.00,0.0000,161.0000
1984-06-16 08:00:00 UTC,2445867.833333,28.7317,-95.2428,0215,0.00,-0.00,0.0000,149.0000
1984-06-16 08:30:00 UTC,2445867.854167,28.7317,-95.2428,0215,0.26,-0.97,1.0000,165.0000
1984-06-16 09:00:00 UTC,2445867.875000,28.7317,-95.2428,0215,0.21,-1.99,2.0000,174.0000
1984-06-16 09:30:00 UTC,2445867.895833,28.7317,-95.2428,0215,0.05,-3.00,3.0000,179.0000
1984-06-16 10:00:00 UTC,2445867.916667,28.7317,-95.2428,0215,-0.05,-3.00,3.0000,181.0000
1984-06-16 10:30:00 UTC,2445867.937500,28.7317,-95.2428,0215,-0.14,-2.00,2.0000,184.0000
1984-06-16 11:00:00 UTC,2445867.958333,28.7317,-95.2428,0215,-0.14,-0.99,1.0000,188.0000
1984-06-16 11:30:00 UTC,2445867.979167,28.7317,-95.2428,0215,-0.00,-0.00,0.0000,186.0000
1984-06-16 12:00:00 UTC,2445868.000000,28.7317,-95.2428,0215,-0.00,0.00,0.0000,305.0000
1984-06-16 12:30:00 UTC,2445868.020833,28.7317,-95.2428,0215,-1.64,1.15,2.0000,305.0000
1984-06-16 13:00:00 UTC,2445868.041667,28.7317,-95.2428,0215,-4.91,3.44,6.0000,305.0000
1984-06-16 13:30:00 UTC,2445868.062500,28.7317,-95.2428,0215,-4.97,3.36,6.0000,304.0000
1984-06-16 14:00:00 UTC,2445868.083333,28.7317,-95.2428,0215,-1.94,0.48,2.0000,284.0000
1984-06-16 14:30:00 UTC,2445868.104167,28.7317,-95.2428,0215,1.88,-3.53,4.0000,152.0000
1984-06-16 15:00:00 UTC,2445868.125000,28.7317,-95.2428,0215,3.61,-6.00,7.0000,149.0000
1984-06-16 15:30:00 UTC,2445868.145833,28.7317,-95.2428,0215,2.72,-5.35,6.0000,153.0000
1984-06-16 16:00:00 UTC,2445868.166667,28.7317,-95.2428,0215,2.35,-4.41,5.0000,152.0000
1984-06-16 16:30:00 UTC,2445868.187500,28.7317,-95.2428,0215,2.12,-3.39,4.0000,148.0000
1984-06-16 17:00:00 UTC,2445868.208333,28.7317,-95.2428,0215,1.68,-2.49,3.0000,146.0000
1984-06-16 17:30:00 UTC,2445868.229167,28.7317,-95.2428,0215,0.54,-0.84,1.0000,147.0000
1984-06-16 18:00:00 UTC,2445868.250000,28.7317,-95.2428,0215,0.54,-0.84,1.0000,147.0000
1984-06-16 18:30:00 UTC,2445868.270833,28.7317,-95.2428,0215,0.44,-0.90,1.0000,154.0000
1984-06-16 19:00:00 UTC,2445868.291667,28.7317,-95.2428,0215,0.68,-1.88,2.0000,160.0000
1984-06-16 19:30:00 UTC,2445868.312500,28.7317,-95.2428,0215,0.98,-2.84,3.0000,161.0000
1984-06-16 20:00:00 UTC,2445868.333333,28.7317,-95.2428,0215,1.24,-3.80,4.0000,162.0000
1984-06-16 20:30:00 UTC,2445868.354167,28.7317,-95.2428,0215,0.78,-2.90,3.0000,165.0000
1984-06-16 21:00:00 UTC,2445868.375000,28.7317,-95.2428,0215,0.57,-2.94,3.0000,169.0000
1984-06-16 21:30:00 UTC,2445868.395833,28.7317,-95.2428,0215,0.56,-3.96,4.0000,172.0000
1984-06-16 22:00:00 UTC,2445868.416667,28.7317,-95.2428,0215,0.63,-5.97,6.0000,174.0000
1984-06-16 22:30:00 UTC,2445868.437500,28.7317,-95.2428,0215,0.42,-5.99,6.0000,176.0000
1984-06-16 23:00:00 UTC,2445868.458333,28.7317,-95.2428,0215,0.21,-6.00,6.0000,178.0000
1984-06-16 23:30:00 UTC,2445868.479167,28.7317,-95.2428,0215,0.00,-6.00,6.0000,180.0000
1984-06-17 00:00:00 UTC,2445868.500000,28.7317,-95.2428,0215,0.00,-5.00,5.0000,180.0000
1984-06-17 00:30:00 UTC,2445868.520833,28.7317,-95.2428,0215,0.21,-6.00,6.0000,178.0000
1984-06-17 01:00:00 UTC,2445868.541667,28.7317,-95.2428,0215,0.37,-6.99,7.0000,177.0000
1984-06-17 01:30:00 UTC,2445868.562500,28.7317,-95.2428,0215,0.00,-7.00,7.0000,180.0000
1984-06-17 02:00:00 UTC,2445868.583333,28.7317,-95.2428,0215,-0.73,-6.96,7.0000,186.0000
1984-06-17 02:30:00 UTC,2445868.604167,28.7317,-95.2428,0215,-0.85,-6.95,7.0000,187.0000
1984-06-17 03:00:00 UTC,2445868.625000,28.7317,-95.2428,0215,-0.37,-6.99,7.0000,183.0000
1984-06-17 03:30:00 UTC,2445868.645833,28.7317,-95.2428,0215,0.10,-6.00,6.0000,179.0000
1984-06-17 04:00:00 UTC,2445868.666667,28.7317,-95.2428,0215,0.00,-6.00,6.0000,180.0000
1984-06-17 04:30:00 UTC,2445868.687500,28.7317,-95.2428,0215,-0.21,-6.00,6.0000,182.0000
1984-06-17 05:00:00 UTC,2445868.708333,28.7317,-95.2428,0215,-0.73,-5.96,6.0000,187.0000
1984-06-17 05:30:00 UTC,2445868.729167,28.7317,-95.2428,0215,-1.12,-4.87,5.0000,193.0000
1984-06-17 06:00:00 UTC,2445868.750000,28.7317,-95.2428,0215,-1.04,-4.89,5.0000,192.0000
1984-06-17 06:30:00 UTC,2445868.770833,28.7317,-95.2428,0215,-0.44,-4.98,5.0000,185.0000
1984-06-17 07:00:00 UTC,2445868.791667,28.7317,-95.2428,0215,0.17,-5.00,5.0000,178.0000
1984-06-17 07:30:00 UTC,2445868.812500,28.7317,-95.2428,0215,-0.10,-6.00,6.0000,181.0000
1984-06-17 08:00:00 UTC,2445868.833333,28.7317,-95.2428,0215,-0.56,-7.98,8.0000,184.0000
1984-06-17 08:30:00 UTC,2445868.854167,28.7317,-95.2428,0215,-0.70,-7.97,8.0000,185.0000
1984-06-17 09:00:00 UTC,2445868.875000,28.7317,-95.2428,0215,-1.10,-6.91,7.0000,189.0000
1984-06-17 09:30:00 UTC,2445868.895833,28.7317,-95.2428,0215,-1.95,-5.67,6.0000,199.0000
1984-06-17 10:00:00 UTC,2445868.916667,28.7317,-95.2428,0215,-3.07,-6.29,7.0000,206.0000
1984-06-17 10:30:00 UTC,2445868.937500,28.7317,-95.2428,0215,-3.39,-6.12,7.0000,209.0000
1984-06-17 11:00:00 UTC,2445868.958333,28.7317,-95.2428,0215,-2.62,-6.49,7.0000,202.0000
1984-06-17 11:30:00 UTC,2445868.979167,28.7317,-95.2428,0215,-1.53,-7.85,8.0000,191.0000
1984-06-17 12:00:00 UTC,2445869.000000,28.7317,-95.2428,0215,-1.39,-9.90,10.0000,188.0000
1984-06-17 12:30:00 UTC,2445869.020833,28.7317,-95.2428,0215,-1.91,-9.82,10.0000,191.0000
1984-06-17 13:00:00 UTC,2445869.041667,28.7317,-95.2428,0215,-2.42,-9.70,10.0000,194.0000
1984-06-17 13:30:00 UTC,2445869.062500,28.7317,-95.2428,0215,-2.59,-9.66,10.0000,195.0000
1984-06-17 14:00:00 UTC,2445869.083333,28.7317,-95.2428,0215,-3.22,-10.52,11.0000,197.0000
1984-06-17 14:30:00 UTC,2445869.104167,28.7317,-95.2428,0215,-3.26,-9.46,10.0000,199.0000
1984-06-17 15:00:00 UTC,2445869.125000,28.7317,-95.2428,0215,-3.52,-8.28,9.0000,203.0000
1984-06-17 15:30:00 UTC,2445869.145833,28.7317,-95.2428,0215,-4.50,-7.79,9.0000,210.0000
1984-06-17 16:00:00 UTC,2445869.166667,28.7317,-95.2428,0215,-5.03,-7.46,9.0000,214.0000
1984-06-17 16:30:00 UTC,2445869.187500,28.7317,-95.2428,0215,-4.59,-6.55,8.0000,215.0000
1984-06-17 17:00:00 UTC,2445869.208333,28.7317,-95.2428,0215,-4.36,-6.71,8.0000,213.0000
1984-06-17 17:30:00 UTC,2445869.229167,28.7317,-95.2428,0215,-3.88,-7.00,8.0000,209.0000
1984-06-17 18:00:00 UTC,2445869.250000,28.7317,-95.2428,0215,-2.47,-7.61,8.0000,198.0000
1984-06-17 18:30:00 UTC,2445869.270833,28.7317,-95.2428,0215,-0.28,-8.00,8.0000,182.0000
1984-06-17 19:00:00 UTC,2445869.291667,28.7317,-95.2428,0215,0.70,-7.97,8.0000,175.0000
1984-06-17 19:30:00 UTC,2445869.312500,28.7317,-95.2428,0215,1.10,-8.93,9.0000,173.0000
1984-06-17 20:00:00 UTC,2445869.333333,28.7317,-95.2428,0215,1.74,-9.85,10.0000,170.0000
1984-06-17 20:30:00 UTC,2445869.354167,28.7317,-95.2428,0215,1.91,-9.82,10.0000,169.0000
1984-06-17 21:00:00 UTC,2445869.375000,28.7317,-95.2428,0215,1.74,-9.85,10.0000,170.0000
1984-06-17 21:30:00 UTC,2445869.395833,28.7317,-95.2428,0215,1.53,-10.89,11.0000,172.0000
1984-06-17 22:00:00 UTC,2445869.416667,28.7317,-95.2428,0215,1.34,-10.92,11.0000,173.0000
1984-06-17 22:30:00 UTC,2445869.437500,28.7317,-95.2428,0215,1.39,-9.90,10.0000,172.0000
1984-06-17 23:00:00 UTC,2445869.458333,28.7317,-95.2428,0215,1.22,-9.93,10.0000,173.0000
1984-06-17 23:30:00 UTC,2445869.479167,28.7317,-95.2428,0215,1.10,-8.93,9.0000,173.0000
1984-06-18 00:00:00 UTC,2445869.500000,28.7317,-95.2428,0215,1.25,-8.91,9.0000,172.0000
1984-06-18 00:30:00 UTC,2445869.520833,28.7317,-95.2428,0215,1.74,-9.85,10.0000,170.0000
1984-06-18 01:00:00 UTC,2445869.541667,28.7317,-95.2428,0215,1.34,-10.92,11.0000,173.0000
1984-06-18 01:30:00 UTC,2445869.562500,28.7317,-95.2428,0215,0.63,-11.98,12.0000,177.0000
1984-06-18 02:00:00 UTC,2445869.583333,28.7317,-95.2428,0215,0.58,-10.98,11.0000,177.0000
1984-06-18 02:30:00 UTC,2445869.604167,28.7317,-95.2428,0215,0.87,-9.96,10.0000,175.0000
1984-06-18 03:00:00 UTC,2445869.625000,28.7317,-95.2428,0215,0.52,-9.99,10.0000,177.0000
1984-06-18 03:30:00 UTC,2445869.645833,28.7317,-95.2428,0215,0.38,-10.99,11.0000,178.0000
1984-06-18 04:00:00 UTC,2445869.666667,28.7317,-95.2428,0215,0.38,-10.99,11.0000,178.0000
1984-06-18 04:30:00 UTC,2445869.687500,28.7317,-95.2428,0215,0.00,-11.00,11.0000,180.0000
1984-06-18 05:00:00 UTC,2445869.708333,28.7317,-95.2428,0215,-0.17,-10.00,10.0000,181.0000
1984-06-18 05:30:00 UTC,2445869.729167,28.7317,-95.2428,0215,0.00,-8.00,8.0000,180.0000
1984-06-18 06:00:00 UTC,2445869.750000,28.7317,-95.2428,0215,-0.24,-7.00,7.0000,182.0000
1984-06-18 06:30:00 UTC,2445869.770833,28.7317,-95.2428,0215,-0.61,-6.97,7.0000,185.0000
1984-06-18 07:00:00 UTC,2445869.791667,28.7317,-95.2428,0215,-0.56,-7.98,8.0000,184.0000
1984-06-18 07:30:00 UTC,2445869.812500,28.7317,-95.2428,0215,-0.56,-7.98,8.0000,184.0000
1984-06-18 08:00:00 UTC,2445869.833333,28.7317,-95.2428,0215,-0.70,-7.97,8.0000,185.0000
1984-06-18 08:30:00 UTC,2445869.854167,28.7317,-95.2428,0215,-0.47,-8.99,9.0000,183.0000
1984-06-18 09:00:00 UTC,2445869.875000,28.7317,-95.2428,0215,-0.17,-10.00,10.0000,181.0000
1984-06-18 09:30:00 UTC,2445869.895833,28.7317,-95.2428,0215,-0.17,-10.00,10.0000,181.0000
1984-06-18 10:00:00 UTC,2445869.916667,28.7317,-95.2428,0215,-0.16,-9.00,9.0000,181.0000
1984-06-18 10:30:00 UTC,2445869.937500,28.7317,-95.2428,0215,0.16,-9.00,9.0000,179.0000
1984-06-18 11:00:00 UTC,2445869.958333,28.7317,-95.2428,0215,0.16,-9.00,9.0000,179.0000
1984-06-18 11:30:00 UTC,2445869.979167,28.7317,-95.2428,0215,-0.35,-9.99,10.0000,182.0000
1984-06-18 12:00:00 UTC,2445870.000000,28.7317,-95.2428,0215,-1.25,-8.91,9.0000,188.0000
1984-06-18 12:30:00 UTC,2445870.020833,28.7317,-95.2428,0215,-1.41,-8.89,9.0000,189.0000
1984-06-18 13:00:00 UTC,2445870.041667,28.7317,-95.2428,0215,-1.25,-7.90,8.0000,189.0000
1984-06-18 13:30:00 UTC,2445870.062500,28.7317,-95.2428,0215,-1.80,-7.79,8.0000,193.0000
1984-06-18 14:00:00 UTC,2445870.083333,28.7317,-95.2428,0215,-2.07,-7.73,8.0000,195.0000
1984-06-18 14:30:00 UTC,2445870.104167,28.7317,-95.2428,0215,-1.66,-7.83,8.0000,192.0000
1984-06-18 15:00:00 UTC,2445870.125000,28.7317,-95.2428,0215,-1.11,-7.92,8.0000,188.0000
1984-06-18 15:30:00 UTC,2445870.145833,28.7317,-95.2428,0215,-0.97,-7.94,8.0000,187.0000
1984-06-18 16:00:00 UTC,2445870.166667,28.7317,-95.2428,0215,-1.66,-7.83,8.0000,192.0000
1984-06-18 16:30:00 UTC,2445870.187500,28.7317,-95.2428,0215,-2.62,-6.49,7.0000,202.0000
1984-06-18 17:00:00 UTC,2445870.208333,28.7317,-95.2428,0215,-2.74,-6.44,7.0000,203.0000
1984-06-18 17:30:00 UTC,2445870.229167,28.7317,-95.2428,0215,-2.63,-8.61,9.0000,197.0000
1984-06-18 18:00:00 UTC,2445870.250000,28.7317,-95.2428,0215,-2.02,-8.77,9.0000,193.0000
1984-06-18 18:30:00 UTC,2445870.270833,28.7317,-95.2428,0215,-1.25,-8.91,9.0000,188.0000
1984-06-18 19:00:00 UTC,2445870.291667,28.7317,-95.2428,0215,-0.31,-8.99,9.0000,182.0000
1984-06-18 19:30:00 UTC,2445870.312500,28.7317,-95.2428,0215,0.14,-8.00,8.0000,179.0000
1984-06-18 20:00:00 UTC,2445870.333333,28.7317,-95.2428,0215,0.28,-8.00,8.0000,178.0000
1984-06-18 20:30:00 UTC,2445870.354167,28.7317,-95.2428,0215,0.42,-7.99,8.0000,177.0000
1984-06-18 21:00:00 UTC,2445870.375000,28.7317,-95.2428,0215,0.42,-7.99,8.0000,177.0000
1984-06-18 21:30:00 UTC,2445870.395833,28.7317,-95.2428,0215,0.47,-8.99,9.0000,177.0000
1984-06-18 22:00:00 UTC,2445870.416667,28.7317,-95.2428,0215,0.31,-8.99,9.0000,178.0000
1984-06-18 22:30:00 UTC,2445870.437500,28.7317,-95.2428,0215,0.00,-9.00,9.0000,180.0000
1984-06-18 23:00:00 UTC,2445870.458333,28.7317,-95.2428,0215,0.00,-9.00,9.0000,180.0000
1984-06-18 23:30:00 UTC,2445870.479167,28.7317,-95.2428,0215,0.35,-9.99,10.0000,178.0000
1984-06-19 00:00:00 UTC,2445870.500000,28.7317,-95.2428,0215,0.70,-9.98,10.0000,176.0000
1984-06-19 00:30:00 UTC,2445870.520833,28.7317,-95.2428,0215,0.87,-9.96,10.0000,175.0000
1984-06-19 01:00:00 UTC,2445870.541667,28.7317,-95.2428,0215,0.96,-10.96,11.0000,175.0000
1984-06-19 01:30:00 UTC,2445870.562500,28.7317,-95.2428,0215,1.05,-9.95,10.0000,174.0000
1984-06-19 02:00:00 UTC,2445870.583333,28.7317,-95.2428,0215,0.84,-7.96,8.0000,174.0000
1984-06-19 02:30:00 UTC,2445870.604167,28.7317,-95.2428,0215,0.37,-6.99,7.0000,177.0000
1984-06-19 03:00:00 UTC,2445870.625000,28.7317,-95.2428,0215,0.00,-7.00,7.0000,180.0000
1984-06-19 03:30:00 UTC,2445870.645833,28.7317,-95.2428,0215,0.24,-7.00,7.0000,178.0000
1984-06-19 04:00:00 UTC,2445870.666667,28.7317,-95.2428,0215,0.73,-6.96,7.0000,174.0000
1984-06-19 04:30:00 UTC,2445870.687500,28.7317,-95.2428,0215,1.10,-6.91,7.0000,171.0000
1984-06-19 05:00:00 UTC,2445870.708333,28.7317,-95.2428,0215,1.14,-5.89,6.0000,169.0000
1984-06-19 05:30:00 UTC,2445870.729167,28.7317,-95.2428,0215,1.25,-5.87,6.0000,168.0000
1984-06-19 06:00:00 UTC,2445870.750000,28.7317,-95.2428,0215,1.45,-5.82,6.0000,166.0000
1984-06-19 06:30:00 UTC,2445870.770833,28.7317,-95.2428,0215,1.38,-4.81,5.0000,164.0000
1984-06-19 07:00:00 UTC,2445870.791667,28.7317,-95.2428,0215,1.71,-4.70,5.0000,160.0000
1984-06-19 07:30:00 UTC,2445870.812500,28.7317,-95.2428,0215,2.34,-5.52,6.0000,157.0000
1984-06-19 08:00:00 UTC,2445870.833333,28.7317,-95.2428,0215,3.00,-7.42,8.0000,158.0000
1984-06-19 08:30:00 UTC,2445870.854167,28.7317,-95.2428,0215,2.74,-7.52,8.0000,160.0000
1984-06-19 09:00:00 UTC,2445870.875000,28.7317,-95.2428,0215,2.74,-7.52,8.0000,160.0000
1984-06-19 09:30:00 UTC,2445870.895833,28.7317,-95.2428,0215,2.74,-7.52,8.0000,160.0000
1984-06-19 10:00:00 UTC,2445870.916667,28.7317,-95.2428,0215,2.28,-6.62,7.0000,161.0000
1984-06-19 10:30:00 UTC,2445870.937500,28.7317,-95.2428,0215,1.55,-5.80,6.0000,165.0000
1984-06-19 11:00:00 UTC,2445870.958333,28.7317,-95.2428,0215,1.69,-6.79,7.0000,166.0000
1984-06-19 11:30:00 UTC,2445870.979167,28.7317,-95.2428,0215,1.57,-6.82,7.0000,167.0000
1984-06-19 12:00:00 UTC,2445871.000000,28.7317,-95.2428,0215,1.10,-6.91,7.0000,171.0000
1984-06-19 12:30:00 UTC,2445871.020833,28.7317,-95.2428,0215,0.73,-6.96,7.0000,174.0000
1984-06-19 13:00:00 UTC,2445871.041667,28.7317,-95.2428,0215,0.85,-6.95,7.0000,173.0000
1984-06-19 13:30:00 UTC,2445871.062500,28.7317,-95.2428,0215,0.97,-6.93,7.0000,172.0000
1984-06-19 14:00:00 UTC,2445871.083333,28.7317,-95.2428,0215,0.42,-7.99,8.0000,177.0000
1984-06-19 14:30:00 UTC,2445871.104167,28.7317,-95.2428,0215,-0.28,-8.00,8.0000,182.0000
1984-06-19 15:00:00 UTC,2445871.125000,28.7317,-95.2428,0215,-0.24,-7.00,7.0000,182.0000
1984-06-19 15:30:00 UTC,2445871.145833,28.7317,-95.2428,0215,0.24,-7.00,7.0000,178.0000
1984-06-19 16:00:00 UTC,2445871.166667,28.7317,-95.2428,0215,0.56,-7.98,8.0000,176.0000
1984-06-19 16:30:00 UTC,2445871.187500,28.7317,-95.2428,0215,0.42,-7.99,8.0000,177.0000
1984-06-19 17:00:00 UTC,2445871.208333,28.7317,-95.2428,0215,0.14,-8.00,8.0000,179.0000
1984-06-19 17:30:00 UTC,2445871.229167,28.7317,-95.2428,0215,-0.24,-7.00,7.0000,182.0000
1984-06-19 18:00:00 UTC,2445871.250000,28.7317,-95.2428,0215,-0.49,-3.97,4.0000,187.0000
1984-06-19 18:30:00 UTC,2445871.270833,28.7317,-95.2428,0215,-0.52,-1.93,2.0000,195.0000
1984-06-19 19:00:00 UTC,2445871.291667,28.7317,-95.2428,0215,-0.00,-0.00,0.0000,185.0000
1984-06-19 19:30:00 UTC,2445871.312500,28.7317,-95.2428,0215,0.00,-0.00,0.0000,142.0000
1984-06-19 20:00:00 UTC,2445871.333333,28.7317,-95.2428,0215,0.71,-0.71,1.0000,135.0000
1984-06-19 20:30:00 UTC,2445871.354167,28.7317,-95.2428,0215,1.23,-1.58,2.0000,142.0000
1984-06-19 21:00:00 UTC,2445871.375000,28.7317,-95.2428,0215,1.12,-1.66,2.0000,146.0000
1984-06-19 21:30:00 UTC,2445871.395833,28.7317,-95.2428,0215,1.09,-1.68,2.0000,147.0000
1984-06-19 22:00:00 UTC,2445871.416667,28.7317,-95.2428,0215,0.59,-0.81,1.0000,144.0000
1984-06-19 22:30:00 UTC,2445871.437500,28.7317,-95.2428,0215,0.66,-0.75,1.0000,139.0000
1984-06-19 23:00:00 UTC,2445871.458333,28.7317,-95.2428,0215,0.00,-0.00,0.0000,128.0000
1984-06-19 23:30:00 UTC,2445871.479167,28.7317,-95.2428,0215,0.00,-0.00,0.0000,118.0000
1984-06-20 00:00:00 UTC,2445871.500000,28.7317,-95.2428,0215,0.00,-0.00,0.0000,112.0000
1984-06-20 00:30:00 UTC,2445871.520833,28.7317,-95.2428,0215,0.00,-0.00,0.0000,99.0000
1984-06-20 01:00:00 UTC,2445871.541667,28.7317,-95.2428,0215,0.00,-0.00,0.0000,103.0000
1984-06-20 01:30:00 UTC,2445871.562500,28.7317,-95.2428,0215,0.00,-0.00,0.0000,116.0000
1984-06-20 02:00:00 UTC,2445871.583333,28.7317,-95.2428,0215,0.45,-0.89,1.0000,153.0000
1984-06-20 02:30:00 UTC,2445871.604167,28.7317,-95.2428,0215,-0.35,-1.97,2.0000,190.0000
1984-06-20 03:00:00 UTC,2445871.625000,28.7317,-95.2428,0215,-1.46,-4.78,5.0000,197.0000
1984-06-20 03:30:00 UTC,2445871.645833,28.7317,-95.2428,0215,-1.65,-5.77,6.0000,196.0000
1984-06-20 04:00:00 UTC,2445871.666667,28.7317,-95.2428,0215,-0.78,-4.94,5.0000,189.0000
1984-06-20 04:30:00 UTC,2445871.687500,28.7317,-95.2428,0215,-0.17,-5.00,5.0000,182.0000
1984-06-20 05:00:00 UTC,2445871.708333,28.7317,-95.2428,0215,0.44,-4.98,5.0000,175.0000
1984-06-20 05:30:00 UTC,2445871.729167,28.7317,-95.2428,0215,0.78,-4.94,5.0000,171.0000
1984-06-20 06:00:00 UTC,2445871.750000,28.7317,-95.2428,0215,0.35,-3.98,4.0000,175.0000
1984-06-20 06:30:00 UTC,2445871.770833,28.7317,-95.2428,0215,0.16,-3.00,3.0000,177.0000
1984-06-20 07:00:00 UTC,2445871.791667,28.7317,-95.2428,0215,1.10,-3.85,4.0000,164.0000
1984-06-20 07:30:00 UTC,2445871.812500,28.7317,-95.2428,0215,1.38,-4.81,5.0000,164.0000
1984-06-20 08:00:00 UTC,2445871.833333,28.7317,-95.2428,0215,0.42,-3.98,4.0000,174.0000